1st Responders/1st Detectors/Storm Spotters Weather Summary for Bell County, KY

Forecast Maps


Reg. NEXRAD Animation


National Fire Danger: Day 1 & 2 Map

Current NWS Watch/Warnings

SPC Convective Day 1 Outlook


Day 2 Outlook

(Click images to enlarge|Page will refresh every 5 minutes)
UK Ag. Weather Center Desktop Severe Weather Service[HERE]
Bell County, KY Hazardous Weather Outlook Webcast
(9 AM to 9 PM Mon-Fri)
[Fast]
[Dial-up]


UKAWC 1st Detectors/1st Responders Precision Weather Forecast For BELL County, Kentucky
(based on the NWS County Digital Forecast)

ISSUED AT 18:00 UTC ON FRIDAY JAN 17 2020
DAY FRIDAY
EDT 3HR 3P 4P 5P 6P 7P
MAX/MIN -- -- -- -- 45°
TEMP 43° 45° 45° 43° 40°
SKY COVER 73% 79% 84% 87% 89%
Clouds
DEW PT 20° 20° 20° 20° 22°
RH 39% 37% 38% 41% 48%
POP 12HR -- -- -- -- --
RAIN/SNOW (liq.equ) -- -- -- -- --
SNOWFALL -- -- -- -- --
WIND SPEED(MPH) 5 5 5 5 5
WIND Gust(MPH) 7 7 7 7 7
WIND DIR E E E E SE
DEW -- -- -- -- --
HeatIndex 40 42 42 40 36
Snow Showers -- -- -- -- --
Rain Showers -- -- -- -- --
WIND CHILL 40° 43° 43° 40° 37°
SPRAY COND
DRY COND
LIVESTOCK COLDSTRESS



DAY SATURDAY SUNDAY MONDAY TUESDAY WEDNESDAY THURSDAY
EDT 6HR 8P 9P 10P 11P MIDN 1A 2A 3A 4A 5A 6A 7A 8A 9A 10A 11A NOON 1P 2P 3P 4P 5P 6P 7P 8P 9P 10P 11P MIDN 1A 2A 5A 8A 11A 2P 5P 8P 2A 8A 2P 8P 2A 8A 2P 8P 2A 8A 2P 8P 2A 8A 2P 8P
MAX/MIN -- -- -- -- -- -- -- -- -- -- -- -- 36° -- -- -- -- -- -- -- -- -- -- 50° -- -- -- -- -- -- -- -- 25° -- -- 34° -- -- 16° 29° -- -- 16° 36° -- -- 18° 45° -- -- 27° 52° --
TEMP 38° 36° 36° 36° 36° 36° 36° 36° 36° 36° 36° 36° 38° 38° 38° 38° 40° 43° 45° 47° 49° 50° 49° 47° 47° 45° 45° 45° 43° 40° 38° 31° 27° 25° 31° 34° 25° 18° 16° 25° 18° 16° 16° 31° 25° 20° 18° 41° 31° 27° 27° 49° 34°
SKY COVER 91% 92% 93% 94% 92% 90% 88% 89% 91% 93% 92% 91% 90% 92% 95% 97% 99% 100% 100% 97% 92% 87% 98% 97% 90% 90% 88% 85% 78% 69% 62% 54% 53% 46% 29% 22% 24% 24% 38% 33% 30% 28% 21% 14% 14% 14% 14% 27% 58% 70% 70% 59% 62%
Clouds
DEW PT 22° 22° 22° 22° 22° 22° 23° 23° 23° 23° 23° 25° 25° 27° 29° 32° 36° 38° 40° 41° 41° 43° 43° 43° 43° 43° 43° 40° 38° 34° 31° 25° 20° 18° 16° 13° 13° 11° 11° 11° 11° 13° 13° 13° 14° 18° 18° 20° 22° 27°
RH 51% 53% 56% 56% 56% 56% 58% 61% 61% 60% 60% 61% 61% 63% 69% 78% 82% 81% 79% 79% 73% 73% 77% 86% 88% 89% 89% 86% 82% 81% 78% 74% 74% 74% 53% 42% 62% 73% 70% 47% 70% 76% 80% 40% 59% 70% 76% 33% 58% 68% 71% 36% 72%
POP 12HR 4% -- -- -- -- -- -- -- -- -- -- -- 34% -- -- -- -- -- -- -- -- -- -- -- 91% -- -- -- -- -- -- -- 29% -- -- -- 9% -- 6% -- 6% -- 4% -- 3% -- 2% -- 1% -- 2% -- 3%
RAIN/SNOW (liq.equ) 0.00in -- -- -- -- -- 0.00in -- -- -- -- -- 0.00in -- -- -- -- -- 0.10in -- -- -- -- -- 0.18in -- -- -- -- -- 0.03in -- 0.00in -- 0.00in -- 0.00in 0.00in 0.00in -- -- -- -- -- -- -- -- -- -- -- -- -- --
SNOWFALL 0in -- -- -- -- -- 0in -- -- -- -- -- 0in -- -- -- -- -- 0in -- -- -- -- -- 0in -- -- -- -- -- 0in -- 0in -- 0in -- 0in 0in 0in -- -- -- -- -- -- -- -- -- -- -- -- -- --
WIND SPEED(MPH) 5 6 6 7 7 7 7 8 8 9 9 10 10 13 14 15 15 15 15 15 13 10 10 10 13 8 9 13 9 9 13 10 9 8 9 8 7 7 6 6 6 5 5 2 2 1 1 1 1 2 2 2 2
WIND DIR SE SE SE SE SE SE SE SE S S S S S S S S S S S S SW SW SW SW SW SW W W W W W W W W W NW NW NW NW NW N N N N N N E S E E SE S E
HeatIndex 34 32 32 31 31 30 30 29 29 28 28 29 30 31 31 30 32 35 45 47 49 50 49 47 47 45 45 38 37 33 30 23 17 15 23 26 17 8 7 19 11 8 8 28 20 20 18 41 31 24 24 49 32
Snow Showers -- -- -- -- -- -- -- -- -- -- -- -- -- -- -- -- -- -- -- -- -- -- -- -- -- -- -- -- -- -- -- -- Chance -- -- -- -- -- -- -- -- -- -- -- -- -- -- -- -- -- -- -- --
Rain Showers -- -- -- -- -- -- -- -- -- Slight Chance Chance Chance Chance Chance Likely Likely Likely Definite Definite Definite Likely Likely Chance Chance Chance Slight Chance Slight Chance Slight Chance -- -- -- -- -- -- -- -- -- -- -- -- -- -- -- -- -- -- -- -- -- -- -- -- --
WIND CHILL 35° 31° 31° 30° 30° 30° 30° 30° 30° 29° 29° 29° 31° 30° 30° 29° 32° 36° 38° -- -- -- -- -- -- 41° 40° 39° 38° 34° 30° 23° 18° 17° 23° 27° 17° 18° 10° -- -- -- -- -- -- -- -- -- --
SPRAY COND
DRY COND
LIVESTOCK COLDSTRESS

Click on individual weather variable above in left-hand column (ie., TEMP, RH, QPF 12HR) to view state forecast maps






NWS 48 Hr. Forecast Maps,

Regional Hourly Observations For BELL County, Kentucky
Issued at 100 PM EST FRI JAN 17 2020
...EASTERN KENTUCKY...
  
CITY           SKY/WX    TMP DP  RH WIND       PRES   REMARKS
JACKSON        FAIR      35  19  52 VRB5      30.62F WCI  31          
6HR MIN TEMP:  24; 6HR MAX TEMP:  35;                                

LONDON         FAIR      35  21  56 E6        30.60F WCI  30          
6HR MIN TEMP:  26; 6HR MAX TEMP:  35;                                

SOMERSET*      FAIR      36  19  51 NE8       30.61F WCI  29          
MONTICELLO*    FAIR      38  20  48 E7        30.59F WCI  33          
6HR MIN TEMP:  27; 6HR MAX TEMP:  38;                                

WILLIAMSBURG*  FAIR      36  19  51 E8        30.59F WCI  29          
MIDDLESBORO*   FAIR      37  20  51 CALM      30.60F                  
6HR MIN TEMP:  30; 6HR MAX TEMP:  37;                                

HARLAN APT*    FAIR      36  17  46 SE3       30.58F                  
PIKE CO APT*   FAIR      33  18  52 NE8       30.63F WCI  26          
BIG SANDY APT* FAIR      35  17  49 E6        30.65F WCI  30          
6HR MIN TEMP:  25; 6HR MAX TEMP:  35;                                

MOREHEAD APT*  FAIR      32  14  47 VRB6      30.67F WCI  26          
ASHLAND*       FAIR      34  17  50 VRB6      30.71F WCI  29          


Current NOWCAST not available:
Nowcasts are not issued routinely during fair weather. Only when
precipitation or other significant weather is occuring in this county will these
forecasts be issued. Currently, there is no short term forecast in effect.


Fire Weather Forecast For BELL County, KY
Provided by the National Weather Service:

Issued at: Fri Jan 17 13:05:01 EST 2020

522 AM EST Fri Jan 17 2020

                      Today        Tonight      Sat          

Cloud Cover           Pcldy        Mcldy        Cloudy       
Chance precip (%)     0            40           90           
Precip type           None         rain         rain         
Temp (24H TREND)      40-45 (-3)   32-41 (+18)  49-54        
Rh % (24H TREND)      30-33 (-1)   50-78 (+1)   42-53        
20ftwnd-AM(mph)       NE 4-8                    S 12-16 G38  
20ftwnd-PM(mph)       E 3-7        SE 3-7       SW 11-15 G37 
Precip duration                    1            5            
Precip begin                                    Continuing   
Precip end                                      Continuing   
Precip amount         0.00         0.01         0.31         
LAL                   1            1            1            
Haines Index (MID)    4                         2            
Mixing hgt(ft-AGL)    1500                      800          
Transport wnd (mph)   E 12                      S 22         
Vent rate (kt-ft)     15056                     16079        
ADI Early             24 Fair      8 Poor       27 Fair      
ADI Late              22 Fair      24 Fair      24 Fair      
Max LVORI Early       3            2            3            
Max LVORI Late        2            2            4            

REMARKS...RANGES OF MIN T EXCEEDING 8 DEGREES & RANGES OF MAX RH        
EXCEEDING 10% INDICATE THE LIKELIHOOD OF THERMAL BELTS. ADI IS        
ATMOSPHERIC DISPERSION INDEX BY LAVDAS. DISPERSION INDEX IS        
MAGNITUDE OF VENT RATE DIVIDED BY 1000.


SPC's Fire Weather Web Tool (Excellent!), SPC's Fire Weather Outlooks, NWS Fire Weather WEB, Fire Danger Class Map,
Keetch-Byram Drought Index, ROMAN Web, Haines Index ,
WFAS's 10-hr Dead Fuel Moist., WFAS's 100-hr Dead Fuel Moist., Probablity of Ignition, Visual blackness Map, Palmer Drought Index, HPC's Rainfall Forecast Maps


Hazardous Weather Outlook For BELL County, Kentucky
436 AM EST Fri Jan 17 2020

 DAY ONE  Today and Tonight.

No hazardous weather is expected at this time.

 DAYS TWO THROUGH SEVEN  Saturday through Thursday.

Wind gusts of 30 to 40 mph will be possible at times from late 
Saturday morning into Saturday evening.

 SPOTTER INFORMATION STATEMENT  

Spotter activation is not anticipated.

Latest BELL County, Kentucky Watches, Warnings and Advisories.
Additional Drought Info.: UKAWC Drought Page, Kentucky Drought Watch


7-Day Forecast For BELL County, KY

THIS AFTERNOON
Mostly cloudy. Highs in the mid 40s. Light winds.

TONIGHT
Cloudy. A 30 percent chance of rain showers near dawn. Lows in the mid 30s. Light winds becoming south around 10 mph late.

SATURDAY
Rain showers. Highs in the lower 50s. Southwest winds 10 to 15 mph with gusts up to 30 mph. Chance of rain 90 percent.

SATURDAY NIGHT
Mostly cloudy. A 30 percent chance of rain showers in the evening. Lows in the mid 20s. West winds around 10 mph. Gusts up to 25 mph in the evening.

SUNDAY
Mostly sunny. Flurries possible in the morning. Highs in the mid 30s. Northwest winds around 10 mph.

SUNDAY NIGHT
Partly cloudy. Lows 15 to 20.

MARTIN LUTHER KING JR DAY
Mostly sunny. Highs in the upper 20s.

MONDAY NIGHT
Partly cloudy. Lows 15 to 20.

TUESDAY
Sunny. Highs 32 to 37.

TUESDAY NIGHT
Mostly clear. Lows around 20.

WEDNESDAY
Sunny. Highs in the mid 40s.

WEDNESDAY NIGHT
Mostly cloudy. Lows in the mid 20s.

THURSDAY
Partly sunny. Highs around 50.

Ag Weather Center, Department of Biosystems & Agricultural Engineering, University of Kentucky